OpenBCM V1.13 (Linux)

Packet Radio Mailbox

DB0FHN

[JN59NK Nuernberg]

 Login: GUEST





  
LU9DCE > KEP      27.06.19 20:20l 245 Lines 12043 Bytes #999 (0) @ WW
BID : 27637_LU9DCE
Read: DJ6UX DF7EAV GUEST
Subj: TLE 27 06
Path: DB0FHN<OE2XZR<OE1XAB<HG8LXL<XE1FH<JE7YGF<GB7CIP<N3HYM<LU3DVN<LU9DCE
Sent: 190627/1800Z 27637@LU9DCE.TOR.BA.ARG.SOAM LinBPQ6.0.18

            __    _  _  ___  ____   ___  ____    ____  ____  ____
           (  )  / )( \/ _ \(    \ / __)(  __)  (  _ \(  _ \/ ___)
           / (_/\) \/ (\__  )) D (( (__  ) _)    ) _ ( ) _ (\___ \
           \____/\____/(___/(____/ \___)(____)  (____/(____/(____/
               ESTACION DE PACKET RADIO - BUENOS AIRES (GF05OM)
                   BOLETINES INFORMATIVOS PROGRAMADOS (BIP)
                  SLACKWARE LINUX - HELLOCODELINUX@GMAIL.COM

+----------------------------------------------------------------------------+
OSCAR 7
1  7530U 74089B   19177.83848640 -.00000030 +00000-0 +93254-4 0  9990
2  7530 101.7440 145.4157 0012042 333.7297 056.9129 12.53638687041303
OSCAR 11 (UoSAT 2)
1 14781U 84021B   19178.20115261  .00000029  00000-0  96272-5 0  9992
2 14781  97.6101 202.5173 0007060 296.6254  63.4237 14.83092058900020
OSCAR 19 (LUSAT)
1 20442U 90005G   19178.32771122 -.00000020  00000-0  90300-5 0  9997
2 20442  98.6489 120.3132 0012727 120.9154 239.3283 14.32927729537619
EYESAT A
1 22825U 93061C   19177.89591549 -.00000004 +00000-0 +16393-4 0  9994
2 22825 098.9031 166.7198 0008040 342.7391 017.3516 14.30061133342857
ITAMSAT
1 22826U 93061D   19177.96562075 -.00000005  00000-0  16137-4 0  9992
2 22826  98.8971 166.7816 0008350 330.3608  29.7099 14.30394738343332
RADIO ROSTO
1 23439U 94085A   19177.85300568 -.00000035 +00000-0 +19867-3 0  9990
2 23439 064.8174 102.9272 0146169 111.6115 250.0452 11.27568280008814
JAS 2
1 24278U 96046B   19177.90539232 +.00000002 +00000-0 +39733-4 0  9997
2 24278 098.5381 330.2023 0349696 218.5795 138.9881 13.53092114128666
TECHSAT 1B
1 25397U 98043D   19177.77209337 -.00000023 +00000-0 +90634-5 0  9996
2 25397 098.6890 117.8182 0001968 048.2988 311.8359 14.23666987088805
ISS (ZARYA)
1 25544U 98067A   19178.35460292  .00003737  00000-0  70358-4 0  9994
2 25544  51.6426 310.8379 0008021  87.7421 310.0409 15.51248813176837
PCSAT
1 26931U 01043C   19177.89039639 -.00000024  00000-0  22768-4 0  9997
2 26931  67.0518 342.5234 0006789 278.7474  81.2858 14.30545503926146
SAUDISAT 1C
1 27607U 02058C   19178.01853431 -.00000049  00000-0  14129-4 0  9993
2 27607  64.5554  24.1388 0081087 254.9471 104.2648 14.75554525888265
CUTE-1
1 27844U 03031E   19178.02512901  .00000034  00000-0  35192-4 0  9999
2 27844  98.6832 186.1138 0010112  14.5179 345.6288 14.22182553829472
CUBESAT XI 4
1 27848U 03031J   19178.01964173  .00000027  00000-0  32050-4 0  9996
2 27848  98.6910 186.6104 0010232  25.4618 334.7062 14.21777161829320
MOZHAYETS 4
1 27939U 03042A   19178.37059870  .00000137  00000-0  33119-4 0  9996
2 27939  98.0413 314.0176 0013861  45.1102 315.1239 14.66787072841815
CUBESAT XI 5
1 28895U 05043F   19177.91693914 +.00000068 +00000-0 +21994-4 0  9994
2 28895 097.9603 320.3664 0015957 329.9932 030.0355 14.63670311728450
CUTE-1.7+APD II
1 32785U 08021C   19177.82053647 +.00000119 +00000-0 +18481-4 0  9993
2 32785 097.5491 177.1514 0011767 231.9223 128.0934 14.88313146604828
DELFI C3
1 32789U 08021G   19177.38695716 +.00000345 +00000-0 +27081-4 0  9994
2 32789 097.4636 226.8203 0014070 098.7569 261.5253 15.06963059608029
SEEDS
1 32791U 08021J   19177.48975180  .00000295  00000-0  35314-4 0  9996
2 32791  97.5275 182.8181 0012537 205.7826 154.2769 14.90824517605271
YUBELEINY
1 32953U 08025A   19178.25639191  .00000021  00000-0  75656-4 0  9995
2 32953  82.5019 139.4389 0020384 108.1291 252.2001 12.43090072503373
PRISM (HITOMI)
1 33493U 09002B   19178.28685868 -.00000140  00000-0 -66979-5 0  9999
2 33493  98.1225  99.5684 0015502 149.3329 210.8800 14.96662309566435
KKS-1 (KISEKI)
1 33499U 09002H   19177.88061123 +.00000061 +00000-0 +16987-4 0  9995
2 33499 098.3500 016.8494 0009229 172.4106 187.7243 14.75443601560008
SWISSCUBE
1 35932U 09051B   19178.11671033  .00000087  00000-0  30756-4 0  9995
2 35932  98.5887 344.3363 0008565 133.8442 226.3464 14.56287154518008
BEESAT
1 35933U 09051C   19178.11916285  .00000075  00000-0  27978-4 0  9996
2 35933  98.5913 346.1009 0006555 143.6555 216.5088 14.56375999518117
ITUPSAT 1
1 35935U 09051E   19177.90672355 +.00000070 +00000-0 +27283-4 0  9995
2 35935 098.6024 346.1198 0008874 144.1302 216.0491 14.55535792517800
XIWANG-1 (HOPE-1)
1 36122U 09072B   19177.71622512 -.00000044 +00000-0 -52677-5 0  9995
2 36122 100.0716 179.7183 0007511 334.0713 026.0024 13.16349998457937
TISAT 1
1 36799U 10035E   19177.86914901 +.00000064 +00000-0 +12624-4 0  9995
2 36799 098.1567 330.2926 0013516 062.8675 297.3918 14.91106883485789
JUGNU
1 37839U 11058B   19178.34890366  .00000289  00000-0  12298-4 0  9995
2 37839  19.9613 282.2839 0019158  62.4743 340.2183 14.12652721398489
SRMSAT
1 37841U 11058D   19177.86751944  .00000291  00000-0  14496-4 0  9997
2 37841  19.9737 342.1443 0011822 286.8778 232.6681 14.10634079397857
M-CUBED/EXP-1 PRIME
1 37855U 11061F   19177.30960627  .00000889  00000-0  52248-4 0  9995
2 37855 101.7142  76.8184 0173788  54.2327 307.4904 15.05425668417929
HORYU 2
1 38340U 12025D   19177.10181633  .00000094  00000-0  21778-4 0  9998
2 38340  98.3283 215.9151 0012918 100.0655 260.2011 14.75721530382252
STRAND 1
1 39090U 13009E   19177.87389884 +.00000001 +00000-0 +15478-4 0  9994
2 39090 098.4879 023.6954 0007908 264.5325 095.4958 14.35087811331542
SOMP
1 39134U 13015E   19177.91226376  .00000428  00000-0  29008-4 0  9998
2 39134  64.8634 353.8050 0031093 302.6944  57.1186 15.20163977341840
BEESAT 3
1 39135U 13015F   19177.91491263 +.00000531 +00000-0 +36219-4 0  9995
2 39135 064.8692 012.2087 0022156 321.0611 038.8918 15.17473970341108
BEESAT 2
1 39136U 13015G   19177.95501593  .00000569  00000-0  38659-4 0  9999
2 39136  64.8701  15.9270 0019585 300.0679  59.8505 15.16901758341426
CUBEBUG 1
1 39153U 13018D   19178.27861555  .00000084  00000-0  17910-4 0  9993
2 39153  97.9787 276.3552 0017370 166.1403 194.0289 14.80568886333083
ZACUBE
1 39417U 13066B   19178.01466475  .00000126  00000-0  22241-4 0  9993
2 39417  97.5618 191.0484 0059196   8.3243 351.8938 14.81117073302273
TRITON 1
1 39427U 13066M   19177.70394933 +.00000148 +00000-0 +31272-4 0  9996
2 39427 097.6762 154.5869 0114779 139.2270 221.7597 14.67842585299323
GOMX 1
1 39430U 13066Q   19178.26224958  .00000094  00000-0  26431-4 0  9992
2 39430  97.7465 134.2504 0149857 226.9729 131.8846 14.59254347297855
HUMSAT D
1 39433U 13066T   19178.12999214  .00000283  00000-0  33012-4 0  9997
2 39433  97.5529 225.2912 0029091 272.6459  87.1431 14.92193992304336
CUBEBUG 2
1 39440U 13066AA  19177.48025756 +.00000133 +00000-0 +25356-4 0  9990
2 39440 097.6018 175.4569 0081687 060.2599 300.6708 14.75854965299920
FUNCUBE 1
1 39444U 13066AE  19178.01063250  .00000165  00000-0  26631-4 0  9997
2 39444  97.5600 192.9984 0058130   2.2425 357.9038 14.81936002301167
UWE-3
1 39446U 13066AG  19177.94477726 +.00000132 +00000-0 +24100-4 0  9990
2 39446 097.5807 182.9254 0070959 034.2697 326.3064 14.78389664299893
SPROUT
1 39770U 14029E   19178.04094873  .00000263  00000-0  35212-4 0  9991
2 39770  97.8861 281.2805 0010631  61.7612 298.4672 14.87342449276073
UNISAT 6
1 40012U 14033C   19177.68620225 +.00000082 +00000-0 +19549-4 0  9996
2 40012 097.7569 043.9533 0059828 072.4819 288.2916 14.73978911269869
DUCHIFAT 1
1 40021U 14033M   19178.33769608  .00000323  00000-0  38767-4 0  9999
2 40021  97.9241 102.9599 0013718  27.5605 332.6337 14.90630601272830
QB50P1
1 40025U 14033R   19177.76458778  .00000130  00000-0  19825-4 0  9992
2 40025  97.9060  97.4360 0013460  38.3784 321.8387 14.88944391272521
CHUBUSAT 1
1 40300U 14070C   19178.26923071  .00000349  00000-0  18161-4 0  9992
2 40300  97.3263 252.2350 0020907  29.3927  42.6641 15.22088179257323
NUDT-PHONESAT
1 40900U 15049B   19178.25820501  .00001126  00000-0  51118-4 0  9991
2 40900  97.4368 187.5083 0013730 148.2856 340.3525 15.22787266208965
ZDPS 2A
1 40901U 15049C   19178.26475694  .00000359  00000-0  21118-4 0  9996
2 40901  97.4593 183.9646 0013709 165.8384  18.8401 15.17723812208532
ZDPS 2B
1 40902U 15049D   19178.34304147  .00000741  00000-0  40217-4 0  9996
2 40902  97.4539 181.5468 0013888 162.5589 305.7292 15.17541111208523
XW-2A
1 40903U 15049E   19178.27566444  .00001206  00000-0  30372-4 0  9997
2 40903  97.3364 221.0890 0015486 111.9002 312.4168 15.41853514211578
KAITUO 1A
1 40904U 15049F   19178.25694524  .00000249  00000-0  16684-4 0  9993
2 40904  97.4665 180.1191 0014756 171.1210 311.2028 15.15363269208292
OBJECT G
1 40905U 15049G   19178.34083014  .00000362  00000-0  23284-4 0  9990
2 40905  97.4702 177.7489 0015848 166.5228 302.1106 15.14291375208188
XW-2C
1 40906U 15049H   19178.25623479  .00000384  00000-0  23599-4 0  9999
2 40906  97.4671 180.1926 0015558 162.8381 319.5406 15.15673302208297
XW-2D
1 40907U 15049J   19178.23408581  .00000117  00000-0  95806-5 0  9998
2 40907  97.4649 179.8480 0014834 159.9710 329.4172 15.15858272208305
LILACSAT 2
1 40908U 15049K   19178.25901743  .00000270  00000-0  18516-4 0  9991
2 40908  97.4781 178.7209 0016194 166.6711 317.4396 15.13801521208103
XW-2F
1 40910U 15049M   19178.25424133  .00000488  00000-0  27805-4 0  9999
2 40910  97.4614 181.8586 0015582 153.6223 337.2231 15.17291090208317
XW-2B
1 40911U 15049N   19178.26613678  .00000512  00000-0  30240-4 0  9990
2 40911  97.4677 180.5298 0014401 160.8330 323.0955 15.15791973208208
KAITUO 1B
1 40912U 15049P   19178.27116069  .00000708  00000-0  36406-4 0  9991
2 40912  97.4495 185.5145 0015971 136.7120 348.1937 15.19602546208619
TIANWANG 1C (TW-1C)
1 40926U 15051B   19178.20198207  .00006702  00000-0  98371-4 0  9995
2 40926  97.1347 224.3667 0007491 356.0730  75.9153 15.55818820211488
